iso_date,Year,Hour,Min,DOY,POS_DOY,Lat,Lon,BP,Ts,Ta,has_bp,has_ts,has_ta,BuoyID,Buoy_Type,Buoy_Owner,Logistics,Hemisphere
2014-08-29T10:59:31Z,2014,11,0,241.458,241.458,88.0416,162.7216,1002.0,0.9,0.1,yes,yes,yes,300234061519990,Snow_Buoy,AWI-USIABP,unknown,North
2014-08-29T12:00:00Z,2014,12,0,241.5,241.5,88.0438,162.8212,1001.6,0.9,0.3,yes,yes,yes,300234061519990,Snow_Buoy,AWI-USIABP,unknown,North
2014-08-29T13:00:28Z,2014,13,0,241.542,241.542,88.0452,162.9202,1001.2,0.9,0.6,yes,yes,yes,300234061519990,Snow_Buoy,AWI-USIABP,unknown,North
2014-08-29T13:59:31Z,2014,14,0,241.583,241.583,88.0452,163.0124,1000.9,0.9,0.6,yes,yes,yes,300234061519990,Snow_Buoy,AWI-USIABP,unknown,North
2014-08-29T15:01:26Z,2014,15,1,241.626,241.626,88.045,163.0904,1000.7,0.9,0.6,yes,yes,yes,300234061519990,Snow_Buoy,AWI-USIABP,unknown,North
2014-08-29T16:00:28Z,2014,16,1,241.667,241.667,88.0444,163.1596,1000.2,0.9,0.7,yes,yes,yes,300234061519990,Snow_Buoy,AWI-USIABP,unknown,North
2014-08-29T16:59:31Z,2014,17,0,241.708,241.708,88.0442,163.2168,1000.0,0.9,0.7,yes,yes,yes,300234061519990,Snow_Buoy,AWI-USIABP,unknown,North
2014-08-29T18:00:00Z,2014,18,0,241.75,241.75,88.0444,163.2722,999.8,0.9,0.7,yes,yes,yes,300234061519990,Snow_Buoy,AWI-USIABP,unknown,North
2014-08-29T19:00:28Z,2014,19,1,241.792,241.792,88.045,163.3268,999.8,0.9,0.4,yes,yes,yes,300234061519990,Snow_Buoy,AWI-USIABP,unknown,North
2014-08-29T19:59:31Z,2014,20,0,241.833,241.833,88.0462,163.3886,999.7,0.9,0.0,yes,yes,yes,300234061519990,Snow_Buoy,AWI-USIABP,unknown,North
2014-08-29T21:01:26Z,2014,21,1,241.876,241.876,88.0478,163.4658,999.7,0.9,-0.3,yes,yes,yes,300234061519990,Snow_Buoy,AWI-USIABP,unknown,North
2014-08-29T22:00:28Z,2014,22,1,241.917,241.917,88.05,163.5612,999.7,0.9,-0.3,yes,yes,yes,300234061519990,Snow_Buoy,AWI-USIABP,unknown,North
2014-08-29T22:59:31Z,2014,23,0,241.958,241.958,88.0522,163.679,999.7,0.9,-0.2,yes,yes,yes,300234061519990,Snow_Buoy,AWI-USIABP,unknown,North
2014-08-30T00:00:00Z,2014,0,0,242.0,242.0,88.0542,163.8158,999.8,0.9,-0.3,yes,yes,yes,300234061519990,Snow_Buoy,AWI-USIABP,unknown,North
2014-08-30T01:00:28Z,2014,1,0,242.042,242.042,88.0558,163.9642,999.8,0.9,0.0,yes,yes,yes,300234061519990,Snow_Buoy,AWI-USIABP,unknown,North
2014-08-30T01:59:31Z,2014,2,0,242.083,242.083,88.0568,164.1108,999.9,0.9,0.0,yes,yes,yes,300234061519990,Snow_Buoy,AWI-USIABP,unknown,North
2014-08-30T03:00:00Z,2014,3,0,242.125,242.125,88.0574,164.2434,1000.0,0.9,-0.1,yes,yes,yes,300234061519990,Snow_Buoy,AWI-USIABP,unknown,North
2014-08-30T04:00:28Z,2014,4,0,242.167,242.167,88.0578,164.3586,1000.2,0.9,-0.1,yes,yes,yes,300234061519990,Snow_Buoy,AWI-USIABP,unknown,North
2014-08-30T04:59:31Z,2014,5,0,242.208,242.208,88.0584,164.462,1000.3,0.9,-0.1,yes,yes,yes,300234061519990,Snow_Buoy,AWI-USIABP,unknown,North
2014-08-30T06:00:00Z,2014,6,0,242.25,242.25,88.0594,164.5608,1000.4,0.9,0.1,yes,yes,yes,300234061519990,Snow_Buoy,AWI-USIABP,unknown,North
2014-08-30T07:00:28Z,2014,7,0,242.292,242.292,88.0608,164.658,1000.5,0.9,0.3,yes,yes,yes,300234061519990,Snow_Buoy,AWI-USIABP,unknown,North
2014-08-30T07:59:31Z,2014,8,0,242.333,242.333,88.0628,164.7582,1000.7,0.9,0.3,yes,yes,yes,300234061519990,Snow_Buoy,AWI-USIABP,unknown,North
2014-08-30T09:00:00Z,2014,9,0,242.375,242.375,88.0648,164.8638,1000.9,0.9,0.3,yes,yes,yes,300234061519990,Snow_Buoy,AWI-USIABP,unknown,North
2014-08-30T10:00:28Z,2014,10,0,242.417,242.417,88.0668,164.9802,1001.4,0.9,0.4,yes,yes,yes,300234061519990,Snow_Buoy,AWI-USIABP,unknown,North
2014-08-30T10:59:31Z,2014,11,0,242.458,242.458,88.0688,165.104,1001.8,0.9,0.4,yes,yes,yes,300234061519990,Snow_Buoy,AWI-USIABP,unknown,North
2014-08-30T12:00:00Z,2014,12,0,242.5,242.5,88.0704,165.2304,1002.1,0.9,0.4,yes,yes,yes,300234061519990,Snow_Buoy,AWI-USIABP,unknown,North
2014-08-30T13:00:28Z,2014,13,0,242.542,242.542,88.0716,165.3546,1002.1,0.9,0.3,yes,yes,yes,300234061519990,Snow_Buoy,AWI-USIABP,unknown,North
2014-08-30T13:59:31Z,2014,14,0,242.583,242.583,88.0722,165.467,1002.4,0.9,0.2,yes,yes,yes,300234061519990,Snow_Buoy,AWI-USIABP,unknown,North
2014-08-30T15:00:00Z,2014,15,0,242.625,242.625,88.0724,165.5662,1002.7,0.9,0.4,yes,yes,yes,300234061519990,Snow_Buoy,AWI-USIABP,unknown,North
2014-08-30T16:00:28Z,2014,16,0,242.667,242.667,88.0724,165.6488,1002.9,0.9,0.6,yes,yes,yes,300234061519990,Snow_Buoy,AWI-USIABP,unknown,North
2014-08-30T16:59:31Z,2014,17,0,242.708,242.708,88.0724,165.7138,1003.0,0.9,0.7,yes,yes,yes,300234061519990,Snow_Buoy,AWI-USIABP,unknown,North
2014-08-30T18:00:00Z,2014,18,0,242.75,242.75,88.0728,165.7674,1003.4,0.9,0.6,yes,yes,yes,300234061519990,Snow_Buoy,AWI-USIABP,unknown,North
2014-08-30T19:00:28Z,2014,19,0,242.792,242.792,88.0736,165.818,1003.7,0.9,0.3,yes,yes,yes,300234061519990,Snow_Buoy,AWI-USIABP,unknown,North
2014-08-30T19:59:31Z,2014,20,0,242.833,242.833,88.075,165.8734,1004.1,0.9,0.6,yes,yes,yes,300234061519990,Snow_Buoy,AWI-USIABP,unknown,North
2014-08-30T21:00:00Z,2014,21,0,242.875,242.875,88.0766,165.9412,1004.6,0.9,0.7,yes,yes,yes,300234061519990,Snow_Buoy,AWI-USIABP,unknown,North
2014-08-30T22:00:28Z,2014,22,0,242.917,242.917,88.0782,166.0224,1005.0,0.9,0.5,yes,yes,yes,300234061519990,Snow_Buoy,AWI-USIABP,unknown,North
2014-08-30T22:59:31Z,2014,23,0,242.958,242.958,88.0798,166.1136,1005.4,0.8,0.1,yes,yes,yes,300234061519990,Snow_Buoy,AWI-USIABP,unknown,North
2014-08-31T00:00:00Z,2014,0,0,243.0,243.0,88.0808,166.2058,1005.7,0.8,-1.3,yes,yes,yes,300234061519990,Snow_Buoy,AWI-USIABP,unknown,North
2014-08-31T01:00:28Z,2014,1,0,243.042,243.042,88.0814,166.2928,1006.1,0.8,-1.7,yes,yes,yes,300234061519990,Snow_Buoy,AWI-USIABP,unknown,North
2014-08-31T01:59:31Z,2014,2,0,243.083,243.083,88.0816,166.3666,1006.5,0.8,-3.4,yes,yes,yes,300234061519990,Snow_Buoy,AWI-USIABP,unknown,North
2014-08-31T03:00:00Z,2014,3,0,243.125,243.125,88.0816,166.4224,1006.8,0.8,-3.8,yes,yes,yes,300234061519990,Snow_Buoy,AWI-USIABP,unknown,North
2014-08-31T04:00:28Z,2014,4,0,243.167,243.167,88.0816,166.453,1007.1,0.8,-2.5,yes,yes,yes,300234061519990,Snow_Buoy,AWI-USIABP,unknown,North
2014-08-31T04:59:31Z,2014,5,0,243.208,243.208,88.082,166.4664,1007.4,0.8,-1.4,yes,yes,yes,300234061519990,Snow_Buoy,AWI-USIABP,unknown,North
2014-08-31T06:00:00Z,2014,6,0,243.25,243.25,88.083,166.472,1007.7,0.8,-1.0,yes,yes,yes,300234061519990,Snow_Buoy,AWI-USIABP,unknown,North
2014-08-31T07:00:28Z,2014,7,0,243.292,243.292,88.0842,166.4798,1008.0,0.8,-0.7,yes,yes,yes,300234061519990,Snow_Buoy,AWI-USIABP,unknown,North
2014-08-31T07:59:31Z,2014,8,0,243.333,243.333,88.086,166.4962,1008.4,0.8,-0.4,yes,yes,yes,300234061519990,Snow_Buoy,AWI-USIABP,unknown,North
2014-08-31T09:00:00Z,2014,9,0,243.375,243.375,88.0882,166.5246,1008.7,0.8,-0.2,yes,yes,yes,300234061519990,Snow_Buoy,AWI-USIABP,unknown,North
2014-08-31T10:00:28Z,2014,10,0,243.417,243.417,88.0902,166.5684,1009.1,0.8,0.0,yes,yes,yes,300234061519990,Snow_Buoy,AWI-USIABP,unknown,North
2014-08-31T10:59:31Z,2014,11,0,243.458,243.458,88.0922,166.6236,1009.3,0.8,0.0,yes,yes,yes,300234061519990,Snow_Buoy,AWI-USIABP,unknown,North
2014-08-31T12:00:00Z,2014,12,0,243.5,243.5,88.094,166.6834,1009.6,0.8,0.1,yes,yes,yes,300234061519990,Snow_Buoy,AWI-USIABP,unknown,North
2014-08-31T13:00:28Z,2014,13,0,243.542,243.542,88.0952,166.7404,1009.7,0.8,0.1,yes,yes,yes,300234061519990,Snow_Buoy,AWI-USIABP,unknown,North
2014-08-31T13:59:31Z,2014,14,0,243.583,243.583,88.0962,166.7864,1009.8,0.8,-0.1,yes,yes,yes,300234061519990,Snow_Buoy,AWI-USIABP,unknown,North
2014-08-31T15:00:00Z,2014,15,0,243.625,243.625,88.097,166.8156,1009.9,0.8,-0.3,yes,yes,yes,300234061519990,Snow_Buoy,AWI-USIABP,unknown,North
2014-08-31T16:00:28Z,2014,16,0,243.667,243.667,88.0976,166.8256,1010.1,0.8,-0.3,yes,yes,yes,300234061519990,Snow_Buoy,AWI-USIABP,unknown,North
2014-08-31T16:59:31Z,2014,17,0,243.708,243.708,88.0988,166.8312,1010.1,0.8,-0.7,yes,yes,yes,300234061519990,Snow_Buoy,AWI-USIABP,unknown,North
2014-08-31T18:00:00Z,2014,18,0,243.75,243.75,88.1002,166.835,1010.2,0.8,-1.0,yes,yes,yes,300234061519990,Snow_Buoy,AWI-USIABP,unknown,North
2014-08-31T19:00:28Z,2014,19,0,243.792,243.792,88.102,166.8406,1010.3,0.8,-0.9,yes,yes,yes,300234061519990,Snow_Buoy,AWI-USIABP,unknown,North
2014-08-31T19:59:31Z,2014,20,0,243.833,243.833,88.1042,166.8576,1010.4,0.8,-0.8,yes,yes,yes,300234061519990,Snow_Buoy,AWI-USIABP,unknown,North
2014-08-31T21:00:00Z,2014,21,0,243.875,243.875,88.1066,166.8878,1010.4,0.8,-0.9,yes,yes,yes,300234061519990,Snow_Buoy,AWI-USIABP,unknown,North
2014-08-31T22:00:28Z,2014,22,0,243.917,243.917,88.109,166.9342,1010.7,0.8,-0.5,yes,yes,yes,300234061519990,Snow_Buoy,AWI-USIABP,unknown,North
2014-08-31T22:59:31Z,2014,23,0,243.958,243.958,88.1112,166.9958,1011.0,0.8,-0.2,yes,yes,yes,300234061519990,Snow_Buoy,AWI-USIABP,unknown,North
2014-09-01T00:00:00Z,2014,0,0,244.0,244.0,88.113,167.0622,1011.0,0.8,0.0,yes,yes,yes,300234061519990,Snow_Buoy,AWI-USIABP,unknown,North
2014-09-01T01:00:28Z,2014,1,0,244.042,244.042,88.1144,167.1152,1011.0,0.8,0.1,yes,yes,yes,300234061519990,Snow_Buoy,AWI-USIABP,unknown,North
2014-09-01T01:59:31Z,2014,2,0,244.083,244.083,88.1154,167.1584,1011.1,0.8,0.2,yes,yes,yes,300234061519990,Snow_Buoy,AWI-USIABP,unknown,North
2014-09-01T03:00:00Z,2014,3,0,244.125,244.125,88.1158,167.189,1011.1,0.8,0.1,yes,yes,yes,300234061519990,Snow_Buoy,AWI-USIABP,unknown,North
2014-09-01T04:00:28Z,2014,4,0,244.167,244.167,88.1162,167.2146,1011.2,0.8,0.1,yes,yes,yes,300234061519990,Snow_Buoy,AWI-USIABP,unknown,North
2014-09-01T04:59:31Z,2014,5,0,244.208,244.208,88.1166,167.2202,1011.4,0.8,0.3,yes,yes,yes,300234061519990,Snow_Buoy,AWI-USIABP,unknown,North
2014-09-01T06:00:00Z,2014,6,0,244.25,244.25,88.117,167.2152,1011.5,0.8,0.3,yes,yes,yes,300234061519990,Snow_Buoy,AWI-USIABP,unknown,North
2014-09-01T07:00:28Z,2014,7,0,244.292,244.292,88.1178,167.2064,1011.6,0.8,0.6,yes,yes,yes,300234061519990,Snow_Buoy,AWI-USIABP,unknown,North
2014-09-01T07:59:31Z,2014,8,0,244.333,244.333,88.1188,167.1964,1012.1,0.8,0.0,yes,yes,yes,300234061519990,Snow_Buoy,AWI-USIABP,unknown,North
2014-09-01T09:00:00Z,2014,9,0,244.375,244.375,88.1198,167.192,1012.2,0.8,-0.7,yes,yes,yes,300234061519990,Snow_Buoy,AWI-USIABP,unknown,North
2014-09-01T10:00:28Z,2014,10,0,244.417,244.417,88.121,167.1924,1012.4,0.8,-0.4,yes,yes,yes,300234061519990,Snow_Buoy,AWI-USIABP,unknown,North
2014-09-01T10:59:31Z,2014,11,0,244.458,244.458,88.122,167.195,1012.6,0.8,-0.7,yes,yes,yes,300234061519990,Snow_Buoy,AWI-USIABP,unknown,North
2014-09-01T12:00:00Z,2014,12,0,244.5,244.5,88.1226,167.1962,1012.8,0.8,-0.7,yes,yes,yes,300234061519990,Snow_Buoy,AWI-USIABP,unknown,North
2014-09-01T13:00:28Z,2014,13,0,244.542,244.542,88.1228,167.192,1012.9,0.8,-0.7,yes,yes,yes,300234061519990,Snow_Buoy,AWI-USIABP,unknown,North
2014-09-01T13:59:31Z,2014,14,0,244.583,244.583,88.123,167.1806,1013.0,0.8,-0.7,yes,yes,yes,300234061519990,Snow_Buoy,AWI-USIABP,unknown,North
2014-09-01T15:00:00Z,2014,15,0,244.625,244.625,88.1226,167.1566,1013.2,0.8,-1.0,yes,yes,yes,300234061519990,Snow_Buoy,AWI-USIABP,unknown,North
2014-09-01T16:00:28Z,2014,16,0,244.667,244.667,88.122,167.1134,1013.2,0.8,-1.2,yes,yes,yes,300234061519990,Snow_Buoy,AWI-USIABP,unknown,North
2014-09-01T16:59:31Z,2014,17,0,244.708,244.708,88.1216,167.0592,1013.4,0.8,-3.1,yes,yes,yes,300234061519990,Snow_Buoy,AWI-USIABP,unknown,North
2014-09-01T18:00:00Z,2014,18,0,244.75,244.75,88.121,166.9972,1013.6,0.8,-3.7,yes,yes,yes,300234061519990,Snow_Buoy,AWI-USIABP,unknown,North
2014-09-01T19:00:28Z,2014,19,0,244.792,244.792,88.1206,166.932,1013.8,0.7,-2.2,yes,yes,yes,300234061519990,Snow_Buoy,AWI-USIABP,unknown,North
2014-09-01T19:59:31Z,2014,20,0,244.833,244.833,88.1204,166.8718,1014.1,0.7,-1.6,yes,yes,yes,300234061519990,Snow_Buoy,AWI-USIABP,unknown,North
2014-09-01T21:00:00Z,2014,21,0,244.875,244.875,88.12,166.8228,1014.3,0.7,-1.3,yes,yes,yes,300234061519990,Snow_Buoy,AWI-USIABP,unknown,North
2014-09-01T22:00:28Z,2014,22,0,244.917,244.917,88.1196,166.7862,1014.5,0.7,-1.3,yes,yes,yes,300234061519990,Snow_Buoy,AWI-USIABP,unknown,North
2014-09-01T22:59:31Z,2014,23,0,244.958,244.958,88.1186,166.7592,1014.8,0.7,-1.1,yes,yes,yes,300234061519990,Snow_Buoy,AWI-USIABP,unknown,North
2014-09-02T00:00:00Z,2014,0,0,245.0,245.0,88.1174,166.7322,1015.0,0.7,-1.1,yes,yes,yes,300234061519990,Snow_Buoy,AWI-USIABP,unknown,North
2014-09-02T01:00:28Z,2014,1,0,245.042,245.042,88.1154,166.7,1015.0,0.7,-1.1,yes,yes,yes,300234061519990,Snow_Buoy,AWI-USIABP,unknown,North
2014-09-02T01:59:31Z,2014,2,0,245.083,245.083,88.113,166.6588,1015.3,0.7,-0.9,yes,yes,yes,300234061519990,Snow_Buoy,AWI-USIABP,unknown,North
2014-09-02T03:00:00Z,2014,3,0,245.125,245.125,88.1102,166.6046,1015.4,0.8,-0.8,yes,yes,yes,300234061519990,Snow_Buoy,AWI-USIABP,unknown,North
2014-09-02T04:00:28Z,2014,4,0,245.167,245.167,88.1074,166.5318,1015.7,0.8,-0.6,yes,yes,yes,300234061519990,Snow_Buoy,AWI-USIABP,unknown,North
2014-09-02T04:59:31Z,2014,5,0,245.208,245.208,88.1046,166.4408,1015.9,0.8,-0.5,yes,yes,yes,300234061519990,Snow_Buoy,AWI-USIABP,unknown,North
2014-09-02T06:00:00Z,2014,6,0,245.25,245.25,88.1022,166.3356,1016.1,0.8,-0.6,yes,yes,yes,300234061519990,Snow_Buoy,AWI-USIABP,unknown,North
2014-09-02T07:00:28Z,2014,7,0,245.292,245.292,88.1002,166.225,1016.7,0.8,-0.7,yes,yes,yes,300234061519990,Snow_Buoy,AWI-USIABP,unknown,North
2014-09-02T07:59:31Z,2014,8,0,245.333,245.333,88.0988,166.1256,1017.1,0.8,-0.9,yes,yes,yes,300234061519990,Snow_Buoy,AWI-USIABP,unknown,North
2014-09-02T09:00:00Z,2014,9,0,245.375,245.375,88.098,166.043,1017.3,0.8,-0.8,yes,yes,yes,300234061519990,Snow_Buoy,AWI-USIABP,unknown,North
2014-09-02T10:00:28Z,2014,10,0,245.417,245.417,88.0972,165.9752,1017.7,0.8,-0.7,yes,yes,yes,300234061519990,Snow_Buoy,AWI-USIABP,unknown,North
2014-09-02T10:59:31Z,2014,11,0,245.458,245.458,88.0964,165.9212,1018.1,0.8,-0.6,yes,yes,yes,300234061519990,Snow_Buoy,AWI-USIABP,unknown,North
2014-09-02T12:00:00Z,2014,12,0,245.5,245.5,88.0952,165.875,1018.5,0.8,-0.3,yes,yes,yes,300234061519990,Snow_Buoy,AWI-USIABP,unknown,North
2014-09-02T13:00:28Z,2014,13,0,245.542,245.542,88.0936,165.8234,1018.7,0.8,-0.3,yes,yes,yes,300234061519990,Snow_Buoy,AWI-USIABP,unknown,North
2014-09-02T13:59:31Z,2014,14,0,245.583,245.583,88.092,165.7618,1018.9,0.8,-0.8,yes,yes,yes,300234061519990,Snow_Buoy,AWI-USIABP,unknown,North
2014-09-02T15:00:00Z,2014,15,0,245.625,245.625,88.09,165.6854,1019.3,0.8,-0.8,yes,yes,yes,300234061519990,Snow_Buoy,AWI-USIABP,unknown,North
2014-09-02T16:00:28Z,2014,16,0,245.667,245.667,88.088,165.5932,1019.6,0.7,-1.0,yes,yes,yes,300234061519990,Snow_Buoy,AWI-USIABP,unknown,North
2014-09-02T16:59:31Z,2014,17,0,245.708,245.708,88.0862,165.4884,1019.8,0.7,-1.4,yes,yes,yes,300234061519990,Snow_Buoy,AWI-USIABP,unknown,North
2014-09-02T18:00:00Z,2014,18,0,245.75,245.75,88.0844,165.3832,1020.1,0.7,-1.8,yes,yes,yes,300234061519990,Snow_Buoy,AWI-USIABP,unknown,North
2014-09-02T19:00:28Z,2014,19,0,245.792,245.792,88.0834,165.2776,1020.6,0.7,-2.1,yes,yes,yes,300234061519990,Snow_Buoy,AWI-USIABP,unknown,North
2014-09-02T19:59:31Z,2014,20,0,245.833,245.833,88.0826,165.1882,1021.0,0.7,-2.1,yes,yes,yes,300234061519990,Snow_Buoy,AWI-USIABP,unknown,North
2014-09-02T21:00:00Z,2014,21,0,245.875,245.875,88.0822,165.1164,1021.3,0.7,-2.3,yes,yes,yes,300234061519990,Snow_Buoy,AWI-USIABP,unknown,North
2014-09-02T22:00:28Z,2014,22,0,245.917,245.917,88.082,165.0656,1021.3,0.7,-2.5,yes,yes,yes,300234061519990,Snow_Buoy,AWI-USIABP,unknown,North
2014-09-02T22:59:31Z,2014,23,0,245.958,245.958,88.0816,165.0338,1021.5,0.7,-2.5,yes,yes,yes,300234061519990,Snow_Buoy,AWI-USIABP,unknown,North
2014-09-03T00:00:00Z,2014,0,0,246.0,246.0,88.0812,165.0146,1021.6,0.7,-2.5,yes,yes,yes,300234061519990,Snow_Buoy,AWI-USIABP,unknown,North
2014-09-03T01:00:28Z,2014,1,0,246.042,246.042,88.0804,164.993,1021.5,0.7,-2.4,yes,yes,yes,300234061519990,Snow_Buoy,AWI-USIABP,unknown,North
2014-09-03T01:59:31Z,2014,2,0,246.083,246.083,88.0792,164.9662,1021.5,0.7,-2.4,yes,yes,yes,300234061519990,Snow_Buoy,AWI-USIABP,unknown,North
2014-09-03T03:00:00Z,2014,3,0,246.125,246.125,88.078,164.9254,1021.4,0.6,-2.4,yes,yes,yes,300234061519990,Snow_Buoy,AWI-USIABP,unknown,North
2014-09-03T04:00:28Z,2014,4,0,246.167,246.167,88.0768,164.8666,1021.7,0.6,-2.3,yes,yes,yes,300234061519990,Snow_Buoy,AWI-USIABP,unknown,North
2014-09-03T04:59:31Z,2014,5,0,246.208,246.208,88.0758,164.7944,1022.0,0.6,-2.3,yes,yes,yes,300234061519990,Snow_Buoy,AWI-USIABP,unknown,North
2014-09-03T06:00:00Z,2014,6,0,246.25,246.25,88.0752,164.7158,1022.3,0.6,-2.7,yes,yes,yes,300234061519990,Snow_Buoy,AWI-USIABP,unknown,North
2014-09-03T07:00:28Z,2014,7,0,246.292,246.292,88.0754,164.6448,1022.3,0.6,-2.6,yes,yes,yes,300234061519990,Snow_Buoy,AWI-USIABP,unknown,North
2014-09-03T07:59:31Z,2014,8,0,246.333,246.333,88.076,164.5838,1022.4,0.6,-2.5,yes,yes,yes,300234061519990,Snow_Buoy,AWI-USIABP,unknown,North
2014-09-03T09:00:00Z,2014,9,0,246.375,246.375,88.077,164.5382,1022.5,0.6,-2.8,yes,yes,yes,300234061519990,Snow_Buoy,AWI-USIABP,unknown,North
2014-09-03T10:00:28Z,2014,10,0,246.417,246.417,88.0782,164.511,1022.5,0.6,-2.8,yes,yes,yes,300234061519990,Snow_Buoy,AWI-USIABP,unknown,North
2014-09-03T10:59:31Z,2014,11,0,246.458,246.458,88.0794,164.4976,1022.6,0.6,-2.5,yes,yes,yes,300234061519990,Snow_Buoy,AWI-USIABP,unknown,North
2014-09-03T12:00:00Z,2014,12,0,246.5,246.5,88.08,164.4904,1022.6,0.6,-2.1,yes,yes,yes,300234061519990,Snow_Buoy,AWI-USIABP,unknown,North
2014-09-03T13:00:28Z,2014,13,0,246.542,246.542,88.08,164.4828,1022.6,0.6,-2.2,yes,yes,yes,300234061519990,Snow_Buoy,AWI-USIABP,unknown,North
2014-09-03T13:59:31Z,2014,14,0,246.583,246.583,88.0796,164.473,1022.7,0.6,-2.4,yes,yes,yes,300234061519990,Snow_Buoy,AWI-USIABP,unknown,North
2014-09-03T15:00:00Z,2014,15,0,246.625,246.625,88.0792,164.4482,1022.7,0.6,-2.7,yes,yes,yes,300234061519990,Snow_Buoy,AWI-USIABP,unknown,North
2014-09-03T16:00:28Z,2014,16,0,246.667,246.667,88.0788,164.4086,1022.8,0.6,-3.3,yes,yes,yes,300234061519990,Snow_Buoy,AWI-USIABP,unknown,North
2014-09-03T16:59:31Z,2014,17,0,246.708,246.708,88.0786,164.3602,1022.9,0.6,-4.1,yes,yes,yes,300234061519990,Snow_Buoy,AWI-USIABP,unknown,North
2014-09-03T18:00:00Z,2014,18,0,246.75,246.75,88.079,164.3044,1022.9,0.6,-4.7,yes,yes,yes,300234061519990,Snow_Buoy,AWI-USIABP,unknown,North
2014-09-03T19:00:28Z,2014,19,0,246.792,246.792,88.0798,164.2498,1022.8,0.5,-5.3,yes,yes,yes,300234061519990,Snow_Buoy,AWI-USIABP,unknown,North
2014-09-03T19:59:31Z,2014,20,0,246.833,246.833,88.081,164.2054,1022.7,0.5,-5.7,yes,yes,yes,300234061519990,Snow_Buoy,AWI-USIABP,unknown,North
2014-09-03T21:00:00Z,2014,21,0,246.875,246.875,88.0828,164.1798,1022.8,0.5,-5.7,yes,yes,yes,300234061519990,Snow_Buoy,AWI-USIABP,unknown,North
2014-09-03T22:00:28Z,2014,22,0,246.917,246.917,88.0846,164.1712,1022.8,0.5,-5.1,yes,yes,yes,300234061519990,Snow_Buoy,AWI-USIABP,unknown,North
2014-09-03T22:59:31Z,2014,23,0,246.958,246.958,88.086,164.1712,1022.7,0.5,-5.4,yes,yes,yes,300234061519990,Snow_Buoy,AWI-USIABP,unknown,North
2014-09-04T00:00:00Z,2014,0,0,247.0,247.0,88.087,164.1814,1022.6,0.5,-4.7,yes,yes,yes,300234061519990,Snow_Buoy,AWI-USIABP,unknown,North
2014-09-04T01:00:28Z,2014,1,0,247.042,247.042,88.0876,164.1858,1022.5,0.5,-4.4,yes,yes,yes,300234061519990,Snow_Buoy,AWI-USIABP,unknown,North
2014-09-04T01:59:31Z,2014,2,0,247.083,247.083,88.0876,164.1804,1022.5,0.5,-4.2,yes,yes,yes,300234061519990,Snow_Buoy,AWI-USIABP,unknown,North
2014-09-04T03:00:00Z,2014,3,0,247.125,247.125,88.0878,164.1698,1022.4,0.5,-4.1,yes,yes,yes,300234061519990,Snow_Buoy,AWI-USIABP,unknown,North
2014-09-04T04:00:28Z,2014,4,0,247.167,247.167,88.0882,164.1472,1022.1,0.5,-3.8,yes,yes,yes,300234061519990,Snow_Buoy,AWI-USIABP,unknown,North
2014-09-04T04:59:31Z,2014,5,0,247.208,247.208,88.0892,164.1154,1022.0,0.5,-3.9,yes,yes,yes,300234061519990,Snow_Buoy,AWI-USIABP,unknown,North
2014-09-04T06:00:00Z,2014,6,0,247.25,247.25,88.0904,164.0796,1021.9,0.5,-4.2,yes,yes,yes,300234061519990,Snow_Buoy,AWI-USIABP,unknown,North
2014-09-04T07:00:28Z,2014,7,0,247.292,247.292,88.0922,164.0416,1021.8,0.5,-5.6,yes,yes,yes,300234061519990,Snow_Buoy,AWI-USIABP,unknown,North
2014-09-04T07:59:31Z,2014,8,0,247.333,247.333,88.0944,164.0134,1021.6,0.4,-6.9,yes,yes,yes,300234061519990,Snow_Buoy,AWI-USIABP,unknown,North
2014-09-04T09:00:00Z,2014,9,0,247.375,247.375,88.097,163.9992,1021.5,0.4,-4.9,yes,yes,yes,300234061519990,Snow_Buoy,AWI-USIABP,unknown,North
2014-09-04T10:00:28Z,2014,10,0,247.417,247.417,88.0994,163.9956,1021.5,0.4,-5.0,yes,yes,yes,300234061519990,Snow_Buoy,AWI-USIABP,unknown,North
2014-09-04T10:59:31Z,2014,11,0,247.458,247.458,88.1018,164.0088,1021.3,0.4,-4.8,yes,yes,yes,300234061519990,Snow_Buoy,AWI-USIABP,unknown,North
2014-09-04T12:00:00Z,2014,12,0,247.5,247.5,88.1038,164.027,1021.1,0.4,-4.8,yes,yes,yes,300234061519990,Snow_Buoy,AWI-USIABP,unknown,North
2014-09-04T13:00:28Z,2014,13,0,247.542,247.542,88.1054,164.0496,1020.8,0.4,-4.8,yes,yes,yes,300234061519990,Snow_Buoy,AWI-USIABP,unknown,North
2014-09-04T13:59:31Z,2014,14,0,247.583,247.583,88.1066,164.0622,1020.5,0.4,-4.8,yes,yes,yes,300234061519990,Snow_Buoy,AWI-USIABP,unknown,North
2014-09-04T15:00:00Z,2014,15,0,247.625,247.625,88.107,164.0604,1019.9,0.4,-4.7,yes,yes,yes,300234061519990,Snow_Buoy,AWI-USIABP,unknown,North
2014-09-04T16:00:28Z,2014,16,0,247.667,247.667,88.1076,164.0446,1019.6,0.4,-4.6,yes,yes,yes,300234061519990,Snow_Buoy,AWI-USIABP,unknown,North
2014-09-04T16:59:31Z,2014,17,0,247.708,247.708,88.1084,164.0174,1019.1,0.4,-4.5,yes,yes,yes,300234061519990,Snow_Buoy,AWI-USIABP,unknown,North
2014-09-04T18:00:00Z,2014,18,0,247.75,247.75,88.1096,163.9836,1018.6,0.4,-4.4,yes,yes,yes,300234061519990,Snow_Buoy,AWI-USIABP,unknown,North
2014-09-04T19:00:28Z,2014,19,0,247.792,247.792,88.1112,163.9496,1018.3,0.4,-4.3,yes,yes,yes,300234061519990,Snow_Buoy,AWI-USIABP,unknown,North
2014-09-04T19:59:31Z,2014,20,0,247.833,247.833,88.1136,163.9214,1018.0,0.4,-4.1,yes,yes,yes,300234061519990,Snow_Buoy,AWI-USIABP,unknown,North
2014-09-04T21:00:00Z,2014,21,0,247.875,247.875,88.1158,163.9058,1017.5,0.4,-4.2,yes,yes,yes,300234061519990,Snow_Buoy,AWI-USIABP,unknown,North
2014-09-04T22:00:28Z,2014,22,0,247.917,247.917,88.1182,163.9042,1017.1,0.4,-4.2,yes,yes,yes,300234061519990,Snow_Buoy,AWI-USIABP,unknown,North
2014-09-04T22:59:31Z,2014,23,0,247.958,247.958,88.1202,163.9134,1016.7,0.4,-4.0,yes,yes,yes,300234061519990,Snow_Buoy,AWI-USIABP,unknown,North
2014-09-05T00:00:00Z,2014,0,0,248.0,248.0,88.1216,163.9284,1016.3,0.4,-3.8,yes,yes,yes,300234061519990,Snow_Buoy,AWI-USIABP,unknown,North
2014-09-05T01:00:28Z,2014,1,0,248.042,248.042,88.1226,163.9436,1015.8,0.4,-3.6,yes,yes,yes,300234061519990,Snow_Buoy,AWI-USIABP,unknown,North
2014-09-05T01:59:31Z,2014,2,0,248.083,248.083,88.123,163.95,1015.3,0.4,-3.4,yes,yes,yes,300234061519990,Snow_Buoy,AWI-USIABP,unknown,North
2014-09-05T03:00:00Z,2014,3,0,248.125,248.125,88.1232,163.9464,1014.7,0.5,-3.3,yes,yes,yes,300234061519990,Snow_Buoy,AWI-USIABP,unknown,North
2014-09-05T04:00:28Z,2014,4,0,248.167,248.167,88.1238,163.9312,1014.1,0.5,-3.3,yes,yes,yes,300234061519990,Snow_Buoy,AWI-USIABP,unknown,North
2014-09-05T04:59:31Z,2014,5,0,248.208,248.208,88.125,163.9072,1013.6,0.5,-3.2,yes,yes,yes,300234061519990,Snow_Buoy,AWI-USIABP,unknown,North
2014-09-05T06:00:00Z,2014,6,0,248.25,248.25,88.1264,163.8792,1013.2,0.5,-2.9,yes,yes,yes,300234061519990,Snow_Buoy,AWI-USIABP,unknown,North
2014-09-05T07:00:28Z,2014,7,0,248.292,248.292,88.1286,163.853,1012.8,0.5,-2.6,yes,yes,yes,300234061519990,Snow_Buoy,AWI-USIABP,unknown,North
2014-09-05T07:59:31Z,2014,8,0,248.333,248.333,88.131,163.8348,1012.4,0.5,-2.2,yes,yes,yes,300234061519990,Snow_Buoy,AWI-USIABP,unknown,North
2014-09-05T09:00:00Z,2014,9,0,248.375,248.375,88.1336,163.8256,1012.2,0.5,-1.8,yes,yes,yes,300234061519990,Snow_Buoy,AWI-USIABP,unknown,North
2014-09-05T10:00:28Z,2014,10,0,248.417,248.417,88.136,163.8246,1011.9,0.5,-1.9,yes,yes,yes,300234061519990,Snow_Buoy,AWI-USIABP,unknown,North